Back to catalog

THORAD AGENA D DEB

AliveLEO
NORAD 42537·DEBRIS·🇺🇸 United States

Launched Apr 8, 1970 from Vandenberg Space Force Base

Loading…

Next Passes (next 24 hours)

TLE

StaleSource: Space-Track

Epoch: Sep 6, 2026, 11:00 UTC

1 42537U 70025ST  26249.45892057  .00000471  00000-0  47298-3 0  9993
2 42537 100.0085 155.3797 0009963  28.2902 331.8789 13.83381256 63888

Track THORAD AGENA D DEB in real time with AllMySat

Download on the App Store